Location: Grange Rosano
(44.4500°N, 6.9667°E)
Time: 18:20:40
(UTC+00:00)

ADEOS II - Pass Details

Date: 09 October 2022
Orbit: 799 x 799 km, 98.6° (Epoch: 30 November)

Event Time Altitude Azimuth Distance (km) Brightness Sun altitude
Rises 02:31:02 0° 6° (N) 3,319 5.7 -33.5°
Reaches altitude 10° 02:33:31 10° 358° (N) 2,385 4.8 -33.1°
Enters shadow 02:34:47 17° 351° (N) 1,948 4.2 -32.9°
